Location: Burera
(21.3780°N, 81.9534°E)
Time: 12:18:56
(UTC+00:00)

Cosmos 292 Rocket - Pass Details

Date: 13 August 2020
Orbit: 674 x 694 km, 74.1° (Epoch: 21 September)

Event Time Altitude Azimuth Distance (km) Brightness Sun altitude
Rises 13:18:14 0° 346° (NNW) 3,020 7.6 -4.1°
Reaches altitude 10° 13:20:31 10° 346° (NNW) 2,106 6.7 -4.6°
Maximum altitude 13:25:16 88° 72° (ENE) 680 3.8 -5.6°
Drops below altitude 10° 13:30:01 10° 166° (SSE) 2,108 6.0 -6.7°
Sets 13:32:19 0° 166° (SSE) 3,024 6.8 -7.2°
